AO-07 1 07530U 74089B 23264.76970117 -.00000033 00000-0 83621-4 0 9999 2 07530 101.9575 252.1286 0011854 238.6758 295.8747 12.53667119235518 UO-11 1 14781U 84021B 23264.47542494 .00002541 00000-0 30183-3 0 9992 2 14781 97.6686 237.7484 0006575 239.8215 120.2349 14.85271847108437 AO-16 1 20439U 90005D 23264.59859807 .00000324 00000-0 13482-3 0 9990 2 20439 98.8913 257.3379 0009663 283.0678 191.8833 14.33163866758714 LO-19 1 20442U 90005G 23264.50759759 .00000316 00000-0 13142-3 0 9994 2 20442 98.8548 243.1305 0010624 255.4158 104.5847 14.33318064759145 AO-27 1 22825U 93061C 23264.60417880 .00000195 00000-0 92821-4 0 9990 2 22825 98.8320 309.0077 0009142 141.2909 218.8929 14.30347072564071 IO-26 1 22826U 93061D 23264.37333797 .00000237 00000-0 10793-3 0 9993 2 22826 98.8266 308.6351 0009855 129.0859 231.1201 14.30712834564310 FO-29 1 24278U 96046B 23264.53528496 .00000039 00000-0 74169-4 0 9990 2 24278 98.5406 230.0097 0350427 166.8463 194.2111 13.53154062337960 NOAA-15 1 25338U 98030A 23264.75093199 .00000261 00000-0 12640-3 0 9996 2 25338 98.6004 292.1334 0010932 37.5235 322.6706 14.26392528319027 GO-32 1 25397U 98043D 23264.48956342 .00000185 00000-0 10065-3 0 9997 2 25397 98.8793 222.8216 0000992 161.7527 198.3687 14.23911052309039 ISS 1 25544U 98067A 23264.84375265 .00017677 00000-0 32240-3 0 9999 2 25544 51.6421 209.7575 0005745 45.5139 355.8544 15.49507545416789 NO-44 1 26931U 01043C 23264.51491469 .00000248 00000-0 12580-3 0 9998 2 26931 67.0512 308.0896 0007359 258.8736 101.1539 14.30985391147365 SO-50 1 27607U 02058C 23264.55209408 .00002185 00000-0 31569-3 0 9990 2 27607 64.5567 329.4321 0058654 204.3533 155.4798 14.77638560116463 CO-55 1 27844U 03031E 23263.95796332 .00000544 00000-0 26157-3 0 9999 2 27844 98.6807 269.8267 0009244 201.9776 158.1007 14.22879314 49350 CO-57 1 27848U 03031J 23264.56519902 .00000459 00000-0 22578-3 0 9995 2 27848 98.6842 270.8029 0008922 216.3716 143.6856 14.22377058 49200 RS-22 1 27939U 03042A 23264.74159851 .00002087 00000-0 36689-3 0 9998 2 27939 98.2571 52.5192 0012311 186.5399 226.9936 14.68694449 68711 NOAA-18 1 28654U 05018A 23264.72434273 .00000314 00000-0 19200-3 0 9991 2 28654 98.9028 338.6202 0015319 106.4666 253.8191 14.13010036945203 CO-58 1 28895U 05043F 23264.59233744 .00002781 00000-0 51483-3 0 9990 2 28895 98.1665 36.0060 0017196 126.5648 233.7141 14.66044012955165 CO-65 1 32785U 08021C 23264.79492856 .00005750 00000-0 55618-3 0 9998 2 32785 97.7172 228.7825 0013297 135.1221 225.1076 14.93094308835304 AAUSAT2 1 32788U 08021F 23264.49626515 .00014955 00000-0 10268-2 0 9997 2 32788 97.5693 241.9496 0008923 40.3999 319.7889 15.06041052837591 DO-64 1 32789U 08021G 23264.54710049 .00155593 00000-0 23980-2 0 9999 2 32789 97.2925 286.3573 0008614 123.8577 236.3498 15.53586782842257 CO-66 1 32791U 08021J 23264.43807416 .00008457 00000-0 72040-3 0 9993 2 32791 97.6657 233.7820 0013186 88.7413 271.5320 14.97950104836141 RS-30 1 32953U 08025A 23264.70180920 .00000029 00000-0 13889-3 0 9994 2 32953 82.4979 257.0568 0019018 337.8685 22.1571 12.43129236695646 PRISM 1 33493U 09002B 23264.56361276 .00012775 00000-0 81668-3 0 9990 2 33493 98.2428 285.9823 0017117 84.9987 275.3193 15.08655981798266 NOAA-19 1 33591U 09005A 23264.71017526 .00000266 00000-0 16757-3 0 9994 2 33591 99.0904 312.1388 0013312 335.1654 24.8875 14.12824455753574 SRMSAT 1 37841U 11058D 23264.63176050 .00000551 00000-0 15713-3 0 9994 2 37841 19.9733 346.8933 0011952 12.4721 136.2422 14.10944470616667 HRBE 1 37855U 11061F 23264.57734136 .00034493 00000-0 93037-3 0 9998 2 37855 101.7102 281.1071 0107730 103.7266 257.5980 15.31987346651763 RS-40 1 38735U 12041C 23264.53146643 .00000023 00000-0 96978-4 0 9991 2 38735 82.4804 338.0237 0018474 88.2116 272.1079 12.42596094505684 ZACUBE-1 1 39417U 13066B 23264.43086602 .00006691 00000-0 75633-3 0 9995 2 39417 97.6956 222.8153 0053214 332.8058 27.0373 14.85771257531485 Delfi-N3xt 1 39428U 13066N 23264.55972374 .00005165 00000-0 72956-3 0 9990 2 39428 97.8295 186.0279 0106916 239.1335 119.9324 14.73701849526321 GOMX-1 1 39430U 13066Q 23264.75533087 .00003490 00000-0 60309-3 0 9997 2 39430 97.7642 150.2266 0145449 28.2823 332.6179 14.62254356523649 LO-74 1 39440U 13066AA 23264.79778821 .00005218 00000-0 66161-3 0 9991 2 39440 97.7791 210.4693 0076191 73.2088 287.7465 14.80090710529644 AO-73 1 39444U 13066AE 23264.41247569 .00007160 00000-0 77349-3 0 9992 2 39444 97.6818 225.4395 0050784 317.0203 42.7051 14.87677618529948 SPROUT 1 39770U 14029E 23264.67435913 .00030315 00000-0 20332-2 0 9991 2 39770 97.9960 35.1435 0005402 342.8924 17.2119 15.06780080506661 DTUSAT-2 1 40030U 14033W 23264.75726983 .00005958 00000-0 56341-3 0 9991 2 40030 97.9723 206.6155 0010112 341.5639 18.5213 14.94026446502925 EO-80 1 40032U 14033Y 23264.39764349 .00007720 00000-0 72798-3 0 9994 2 40032 97.9722 206.2669 0009964 345.9753 14.1188 14.94038690502332 HODOYOSHI-1 1 40299U 14070B 23264.72837097 .00014326 00000-0 40938-3 0 9999 2 40299 97.1835 324.9823 0008251 294.8792 65.1595 15.36065241493614 GRIFEX 1 40379U 15003D 23264.74271736 .00067699 00000-0 10983-2 0 9996 2 40379 99.0810 225.4899 0062832 297.2129 62.2723 15.50248595478290 XW-2C 1 40906U 15049H 23264.76998273 .00016341 00000-0 58070-3 0 9994 2 40906 97.4956 272.4040 0011349 169.4173 190.7307 15.29030485443149 XW-2D 1 40907U 15049J 23264.77953014 .00020374 00000-0 66881-3 0 9990 2 40907 97.4930 273.2462 0010734 160.2582 199.9077 15.31565776443255 LILACSAT-2 1 40908U 15049K 23264.77762772 .00007406 00000-0 33673-3 0 9994 2 40908 97.5290 267.6580 0012628 205.5675 154.4938 15.20970521442475 XW-2E 1 40909U 15049L 23264.70405010 .00048767 00000-0 10146-2 0 9991 2 40909 97.4496 280.6229 0009944 123.9026 236.3170 15.45427945444012 XW-2F 1 40910U 15049M 23264.74533805 .00046496 00000-0 99298-3 0 9994 2 40910 97.4592 279.9227 0010529 126.6509 233.5709 15.44661884443755 XW-2B 1 40911U 15049N 23264.72575132 .00019559 00000-0 64775-3 0 9994 2 40911 97.4908 273.5648 0010645 161.9249 198.2372 15.31290182443125 DCBB 1 40912U 15049P 23264.76033326 .00073367 00000-0 11395-2 0 9999 2 40912 97.4095 285.0533 0010012 92.3057 267.9342 15.53659318444559 IO-86 1 40931U 15052B 23264.63252401 .00001466 00000-0 11272-3 0 9993 2 40931 5.9992 117.9879 0013441 223.2864 136.6207 14.77363880431634 ChubuSat-2 1 41338U 16012B 23264.54889324 .00005066 00000-0 34387-3 0 9994 2 41338 31.0035 321.3815 0011946 60.1787 300.0036 15.04795453416901 ChubuSat-3 1 41339U 16012C 23264.55511732 .00004560 00000-0 31077-3 0 9992 2 41339 31.0099 318.6676 0011874 67.1624 293.0266 15.04578411416890 Horyu-4 1 41340U 16012D 23264.45904745 .00009094 00000-0 54899-3 0 9997 2 41340 31.0041 283.4333 0011262 131.7558 228.4044 15.09370427417274 e-st@r-II 1 41459U 16025D 23264.68642900 .00045439 00000-0 10959-2 0 9990 2 41459 98.1743 116.1941 0094737 121.2378 239.8188 15.36461439407680 LO-87 1 41557U 16033B 23264.75349446 .00271550 00000-0 13097-2 0 9996 2 41557 97.3866 17.7815 0003415 197.0042 163.1112 15.81870268408764 NuSat2 1 41558U 16033C 23264.58095607 .00525608 11767-3 12326-2 0 9990 2 41558 97.4154 27.1120 0004699 251.2216 108.8551 15.96918686409140 Lapan A3 1 41603U 16040E 23264.72447192 .00003576 00000-0 15468-3 0 9996 2 41603 97.1625 285.8387 0011837 344.1521 15.9344 15.23002611402189 Pratham 1 41783U 16059A 23264.32057813 .00001177 00000-0 23075-3 0 9996 2 41783 97.8634 291.1403 0033609 153.9868 206.3033 14.64137605373044 TY-1 1 41844U 16066D 23264.74224897 .00170836 00000-0 13408-2 0 9993 2 41844 97.3581 287.7430 0007189 83.1954 277.0127 15.70989071382749 CAS-2T 1 41847U 16066G 23264.20533089 .00001529 00000-0 23704-3 0 9996 2 41847 98.4957 332.2813 0357415 269.2683 86.7548 14.40017221360628 CAS-4B 1 42759U 17034B 23264.56786337 .00011117 00000-0 52792-3 0 9993 2 42759 43.0154 299.2020 0010968 0.0081 0.0767 15.19216391346284 CAS-4A 1 42761U 17034D 23264.58353208 .00010561 00000-0 50179-3 0 9994 2 42761 43.0150 297.6328 0011627 0.8399 359.2468 15.19233254346294 NIUSat 1 42766U 17036B 23264.55297001 .00042871 00000-0 89523-3 0 9990 2 42766 97.1491 294.0242 0011096 109.5714 250.6734 15.45334332347469 Aalto 1 1 42775U 17036L 23264.59611213 .00024105 00000-0 61391-3 0 9992 2 42775 97.1456 292.0708 0011157 113.0049 247.2376 15.39492948347335 URSA MAIOR 1 42776U 17036M 23264.58140655 .00030175 00000-0 70247-3 0 9993 2 42776 97.1461 293.7286 0010717 109.6439 250.5967 15.42178797347426 Max Valier Sat 1 42778U 17036P 23264.57745526 .00030920 00000-0 67932-3 0 9997 2 42778 97.1447 297.4195 0009509 109.3175 250.9103 15.43917405347573 Pegasus 1 42784U 17036V 23264.03388561 .00079610 00000-0 10737-2 0 9996 2 42784 97.1369 300.8587 0007432 104.9982 255.2097 15.57512101347846 SUCHAI 1 1 42788U 17036Z 23264.60991572 .00483366 89875-4 16604-2 0 9992 2 42788 97.1241 307.5812 0003210 157.0309 203.1108 15.89617791348411 SKCUBE 1 42789U 17036AA 23264.66172714 .00152833 00000-0 13428-2 0 9990 2 42789 97.1297 304.6085 0005896 104.6205 255.5711 15.68309422348145 VENTA 1 1 42791U 17036AC 23264.35326781 .00090049 00000-0 11906-2 0 9993 2 42791 97.1368 302.4255 0006493 104.4777 255.7200 15.58014413347953 Robusta 1B 1 42792U 17036AD 23264.06338951 .00287876 00000-0 15307-2 0 9999 2 42792 97.1256 306.0905 0003938 123.4626 236.7018 15.79686840348204 D-SAT 1 42794U 17036AF 23264.71309086 .00007449 00000-0 57729-3 0 9991 2 42794 97.4732 252.3706 0113580 338.0325 21.6049 14.96658160340394 TechnoSat 1 42829U 17042E 23264.77671249 .00002882 00000-0 27383-3 0 9995 2 42829 97.3866 96.4668 0011731 260.6995 99.2900 14.94161512336910 AO-91 1 43017U 17073E 23264.62669791 .00008385 00000-0 56914-3 0 9998 2 43017 97.6137 145.1760 0230535 110.2661 252.3499 14.87449374315519 PICSAT 1 43132U 18004X 23264.20591932 .00681978 19747-3 17934-2 0 9990 2 43132 97.3068 351.9541 0006445 257.7384 102.3170 15.94789022317610 AO-92 1 43137U 18004AC 23264.78017700 .00067327 00000-0 10048-2 0 9998 2 43137 97.3180 345.5316 0004936 147.3412 212.8148 15.54826084317267 TianYi 2 1 43155U 18008A 23264.74604299 .00026628 00000-0 92557-3 0 9998 2 43155 97.2875 315.1532 0010411 332.7050 27.3642 15.29657491313397 Zhou Enlai 1 43156U 18008B 23264.77180703 .00030626 00000-0 10316-2 0 9996 2 43156 97.2922 315.4686 0008092 334.3726 25.7113 15.30670541313336 TianYi 6 1 43158U 18008D 23264.68122815 .00021189 00000-0 81567-3 0 9999 2 43158 97.2948 311.8036 0008694 341.6376 18.4547 15.26357695313129 S-Net D 1 43186U 18014G 23264.25767595 .00005180 00000-0 40753-3 0 9995 2 43186 97.6122 166.2015 0012593 202.5238 157.5435 15.01202392307964 S-Net B 1 43187U 18014H 23264.32577827 .00005150 00000-0 40525-3 0 9995 2 43187 97.6127 166.1945 0012873 200.5748 159.4959 15.01199728307977 S-Net A 1 43188U 18014J 23264.72566232 .00004702 00000-0 37031-3 0 9998 2 43188 97.6131 166.6809 0012936 199.1526 160.9213 15.01205847308032 S-Net C 1 43189U 18014K 23264.52841441 .00004733 00000-0 37273-3 0 9997 2 43189 97.6141 166.3761 0013499 195.5429 164.5383 15.01199923306555 CubeBel-1 1 43666U 18083E 23264.73246271 .00053671 00000-0 11120-2 0 9993 2 43666 97.3718 297.3364 0010027 127.0888 233.1279 15.45525484272078 Changshagaoxin 1 43669U 18083H 23264.77080833 .00037097 00000-0 91738-3 0 9998 2 43669 97.3731 291.3859 0008563 126.4564 233.7472 15.40334497271780 Ten-Koh 1 43677U 18084G 23264.37057114 .00003631 00000-0 34920-3 0 9997 2 43677 98.0278 46.1347 0014696 186.4041 173.6993 14.93589138266416 PO-101 1 43678U 18084H 23264.72644609 .00002045 00000-0 19850-3 0 9991 2 43678 98.0373 50.7420 0009077 195.9681 164.1253 14.93782966266674 QO-100 1 43700U 18090A 23264.54512593 .00000149 00000-0 00000+0 0 9996 2 43700 0.0141 239.4138 0002486 328.6747 14.1511 1.00272961 17895 Reaktor Hello World 1 43743U 18096AA 23264.75244765 .00247524 00000-0 12984-2 0 9992 2 43743 97.3071 355.6867 0007020 200.8951 159.2031 15.80070436269297 MinXSS-2 1 43758U 18099A 23264.70728161 .00008134 00000-0 60694-3 0 9997 2 43758 97.5959 326.8996 0020375 152.2828 207.9488 15.02941410262231 AO-95 1 43770U 18099N 23264.39504660 .00007696 00000-0 60635-3 0 9999 2 43770 97.5759 323.4052 0014784 183.8450 176.2663 15.00969273262033 RANGE-B 1 43772U 18099Q 23264.14679067 .00009545 00000-0 71303-3 0 9997 2 43772 97.5623 326.1764 0007283 111.1199 249.0805 15.02993975262074 RANGE-A 1 43773U 18099R 23264.13564973 .00004317 00000-0 35829-3 0 9991 2 43773 97.5549 320.8713 0012347 148.3353 211.8615 14.99232112261932 MOVE-II 1 43780U 18099Y 23264.39512933 .00014956 00000-0 10339-2 0 9994 2 43780 97.5611 326.4712 0008772 178.3356 181.7901 15.05787213262203 SNUSat 2 1 43782U 18099AA 23264.17100545 .00006822 00000-0 54188-3 0 9998 2 43782 97.5578 323.6194 0016040 119.0187 241.2647 15.00683386262021 SnugLite 1 43784U 18099AC 23264.68217996 .00006140 00000-0 48079-3 0 9990 2 43784 97.5424 323.7661 0009834 139.9889 220.2062 15.01327404262144 ITASat 1 1 43786U 18099AE 23264.42438437 .00005902 00000-0 47273-3 0 9999 2 43786 97.5608 324.4062 0018378 166.2458 193.9271 15.00383381262076 EAGLET 1 1 43790U 18099AJ 23264.43182469 .00004339 00000-0 35485-3 0 9991 2 43790 97.5626 324.8013 0013930 164.8027 195.3618 14.99782069261800 ESEO 1 43792U 18099AL 23264.42541699 .00002376 00000-0 20555-3 0 9997 2 43792 97.5585 322.9639 0013142 157.3923 202.7881 14.98040514261790 CSIM 1 43793U 18099AM 23264.39807669 .00014521 00000-0 99270-3 0 9991 2 43793 97.5668 327.9213 0016272 156.1984 203.9999 15.06131661262054 Astrocast 0.1 1 43798U 18099AS 23264.17801101 .00012520 00000-0 89784-3 0 9993 2 43798 97.5764 326.9203 0013167 135.0159 225.2136 15.04416172262190 JO-97 1 43803U 18099AX 23264.15069127 .00007723 00000-0 59195-3 0 9994 2 43803 97.5628 324.3355 0013607 133.6569 226.5786 15.02031517262092 Suomi 100 1 43804U 18099AY 23264.17064377 .00007894 00000-0 60969-3 0 9999 2 43804 97.5720 324.1167 0018829 141.4682 218.7891 15.01664786262098 Al Farabi 2 1 43805U 18099AZ 23264.12576209 .00010726 00000-0 78385-3 0 9996 2 43805 97.5501 325.2005 0013236 134.6033 225.6275 15.03742937262168 CHOMPTT 1 43855U 18104G 23264.54775718 .00034702 00000-0 71273-3 0 9999 2 43855 85.0234 100.3279 0009391 323.1187 36.9421 15.45801871265433 ISAT 1 43879U 18111D 23264.55853166 .00009112 00000-0 66574-3 0 9993 2 43879 97.6310 167.7054 0013981 190.7492 169.3437 15.03792790258813 UWE-4 1 43880U 18111E 23263.70487969 .00008615 00000-0 63463-3 0 9996 2 43880 97.6214 167.4348 0017285 203.8972 156.1453 15.03460783258716 Sparrow 1 43881U 18111F 23264.54202215 .00008853 00000-0 64097-3 0 9997 2 43881 97.6395 169.1567 0009214 233.5009 126.5368 15.04192145258860 Lume 1 1 43908U 18111AJ 23264.19868085 .00065422 00000-0 98298-3 0 9996 2 43908 97.1187 146.4613 0009370 190.4401 169.6661 15.54612133264268 FO-99 1 43937U 19003F 23264.32228197 .00164185 00000-0 13591-2 0 9996 2 43937 97.0748 291.2733 0005126 257.2306 102.8384 15.69738021261039 AstroCast 0.2 1 44083U 19018F 23264.11973936 .00132503 00000-0 12558-2 0 9991 2 44083 97.2511 325.6183 0005892 214.0602 146.0281 15.66492695249340 AISTechSat 3 1 44103U 19018AB 23264.59382085 .00041528 00000-0 81418-3 0 9993 2 44103 97.2407 322.7125 0005961 277.4848 82.5725 15.47231617249388 AISat 1 1 44104U 19018AC 23264.51980257 .00029350 00000-0 48523-3 0 9990 2 44104 97.3717 357.9214 0034915 264.6785 95.0483 15.51473445250634 Prox-1 1 44339U 19036A 23264.12433183 .00009453 00000-0 18543-2 0 9998 2 44339 23.9991 154.0227 0009636 244.7079 115.2415 14.60732926225633 Move-IIb 1 44398U 19038N 23264.76148309 .00130571 00000-0 19403-2 0 9990 2 44398 97.6656 253.1078 0004392 317.4040 42.6872 15.54709216233593 SONATE 1 44400U 19038Q 23264.46277335 .00014276 00000-0 59850-3 0 9997 2 44400 97.6940 244.2815 0018837 343.3914 16.6703 15.23460920232887 BeeSat 9 1 44412U 19038AC 23264.39564620 .00040533 00000-0 11756-2 0 9995 2 44412 97.6822 248.5918 0011657 336.8025 23.2690 15.35352119232896 JAISAT-1 1 44419U 19038F 23264.45832564 .00036280 00000-0 10456-2 0 9994 2 44419 97.6813 249.7750 0010883 333.4026 26.6657 15.35584986233287 Taurus 1 1 44530U 19059C 23264.78699632 .00006227 00000-0 15834-2 0 9997 2 44530 98.5595 14.1616 0013834 155.7525 204.4323 14.50992010212641 Duchifat 3 1 44854U 19089C 23264.27543019 .00012477 00000-0 79927-3 0 9998 2 44854 36.9604 236.3035 0006437 13.0180 347.0730 15.07965812207401 OPS-SAT 1 44878U 19092F 23264.48535552 .00033741 00000-0 85380-3 0 9991 2 44878 97.4724 94.8136 0008460 143.2791 216.9035 15.39654172208584 TO-108 1 44881U 19093C 23264.73720806 .00001615 00000-0 20596-3 0 9995 2 44881 97.8553 341.5306 0015893 120.8091 239.4689 14.82770838203108 FloripaSat 1 1 44885U 19093G 23264.49154887 .00005388 00000-0 61218-3 0 9999 2 44885 97.8625 344.6132 0014658 122.4021 237.8615 14.86612621203258 RS-44 1 44909U 19096E 23264.54208580 .00000008 00000-0 -50617-5 0 9993 2 44909 82.5168 283.9217 0216707 321.9388 36.6569 12.79722680174480 BY70-2 1 45857U 20042B 23264.75914535 .00026819 00000-0 24716-2 0 9991 2 45857 97.9191 345.2432 0007780 56.2574 303.9386 14.94632818173943 UPMSat 2 1 46276U 20061E 23264.19188443 .00012884 00000-0 51495-3 0 9999 2 46276 97.3368 329.8377 0001744 55.5089 304.6314 15.25243304168915 AmicalSat 1 46287U 20061R 23264.10893901 .00017219 00000-0 74117-3 0 9997 2 46287 97.3902 328.9324 0003485 110.7010 249.4601 15.22673242168296 SALSAT 1 46495U 20068K 23264.45493236 .00005874 00000-0 37756-3 0 9992 2 46495 97.7783 213.5773 0016270 146.1000 214.1271 15.08708138163589 CAPE 3 1 47309U 21002A 23264.61674047 .00060751 00000-0 10958-2 0 9994 2 47309 60.6744 45.9794 0016245 349.2636 10.8114 15.49206009149185 AO-109 1 47311U 21002C 23264.74727586 .00044109 00000-0 92867-3 0 9997 2 47311 60.6794 45.7974 0013672 351.5455 8.5410 15.44896691149187 ExoCube 2 1 47319U 21002L 23264.80298024 .00042552 00000-0 92764-3 0 9998 2 47319 60.6775 48.2211 0014404 350.4802 9.6020 15.43872212149107 UVSQ-SAT 1 47438U 21006AB 23264.10104590 .00021646 00000-0 80145-3 0 9992 2 47438 97.3738 319.9835 0010678 103.9986 256.2442 15.27625050147270 YUSAT 1 1 47439U 21006AC 23264.39714205 .00030425 00000-0 10069-2 0 9996 2 47439 97.3740 321.4743 0009830 100.8549 259.3799 15.31228548147397 SOMP 2b 1 47445U 21006AJ 23264.40248279 .00021337 00000-0 81116-3 0 9992 2 47445 97.3700 319.3738 0010606 107.9487 252.2909 15.26755372147289 IDEASSat 1 47458U 21006AX 23264.10030365 .00018867 00000-0 73668-3 0 9995 2 47458 97.3798 319.8773 0010037 107.9482 252.2851 15.25896585147217 CubeSX-Sirius-HSE 1 47951U 21022V 23264.74742729 .00012603 00000-0 66779-3 0 9992 2 47951 97.4826 160.5899 0018288 7.8584 352.2931 15.15387319137640 CubeSX-HSE 1 47952U 21022W 23264.78236454 .00012908 00000-0 68248-3 0 9991 2 47952 97.4830 160.6805 0018184 7.4497 352.7002 15.15461116137651 KSU-Cubesat 1 47954U 21022Y 23264.70640303 .00014654 00000-0 75041-3 0 9996 2 47954 97.4837 161.1307 0017425 6.6063 353.5396 15.16571029137392 GRBAlpha 1 47959U 21022AD 23264.76365432 .00012855 00000-0 67799-3 0 9996 2 47959 97.4832 160.7614 0018005 7.9520 352.1994 15.15550995136470 Orbicraft-Zorkiy 1 47960U 21022AE 23264.73789248 .00014977 00000-0 77002-3 0 9995 2 47960 97.4864 161.3152 0017570 6.2184 353.9264 15.16422893137189 STECCO 1 47962U 21022AG 23264.77347418 .00028156 00000-0 11509-2 0 9993 2 47962 97.4833 164.6815 0011265 358.2592 1.8604 15.24268701136739 MO-110 1 47964U 21022AJ 23264.69923330 .00029380 00000-0 11630-2 0 9994 2 47964 97.4848 165.3579 0012730 351.1563 8.9448 15.25320499136761 FEES 1 48082U 21022AL 23264.72541972 .00063294 00000-0 18002-2 0 9990 2 48082 97.4827 167.8213 0007004 354.9938 5.1234 15.35892935136635 TUBIN 1 48900U 21059X 23264.71180495 .00012236 00000-0 55023-3 0 9992 2 48900 97.6129 39.1176 0007747 310.4021 49.6537 15.21243630123849 IT-SPINS 1 49017U 21013G 23264.53739167 .00054321 00000-0 94788-3 0 9990 2 49017 51.5894 323.7777 0008056 337.5277 22.5357 15.50128049124617 LEDSAT 1 49069U 21073D 23264.15452245 .00013719 00000-0 71283-3 0 9991 2 49069 97.4731 333.4765 0024050 145.7835 214.4953 15.15949508115435 CUTE 1 49263U 21088D 23264.13999955 .00013349 00000-0 81092-3 0 9993 2 49263 97.5340 328.3571 0015733 294.6938 65.2654 15.10506349108767 TeikyoSat 4 1 49396U 21102B 23264.43538041 .00002876 00000-0 21978-3 0 9995 2 49396 97.4998 313.4220 0014525 111.7172 248.5601 15.02638457102225 Z-Sat 1 49399U 21102E 23264.74626658 .00004651 00000-0 32536-3 0 9999 2 49399 97.4752 314.8722 0023354 99.9940 260.3924 15.05533122102415 KOSEN 1 1 49402U 21102H 23264.70085593 .00006256 00000-0 41375-3 0 9991 2 49402 97.4668 315.5191 0021886 88.5448 271.8287 15.07516737102491 HO-113 1 50466U 21131B 23264.75148329 .00000885 00000-0 30074-3 0 9993 2 50466 98.5473 345.9844 0003928 196.3012 163.8049 14.39058564 91242 Tevel-3 1 50988U 22002E 23264.63307976 .00027163 00000-0 95297-3 0 9998 2 50988 97.4232 331.1715 0006034 244.1253 115.9365 15.29386097 93488 Tevel-8 1 50989U 22002F 23264.65629656 .00027897 00000-0 98081-3 0 9991 2 50989 97.4248 331.2641 0006021 243.3616 116.7008 15.29311322 93487 Tevel-5 1 50998U 22002Q 23264.65093413 .00028675 00000-0 97420-3 0 9998 2 50998 97.4226 331.6995 0007119 238.6449 121.4095 15.30414245 93523 Tevel-6 1 50999U 22002R 23264.71493723 .00028435 00000-0 96612-3 0 9990 2 50999 97.4225 331.7561 0007114 238.2528 121.8020 15.30414198 93532 Tevel-1 1 51013U 22002AF 23264.64615749 .00027458 00000-0 96492-3 0 9994 2 51013 97.4224 331.1100 0005918 243.9009 116.1623 15.29330710 93484 Grizu-263a 1 51025U 22002AT 23264.16389205 .00761016 00000-0 31945-2 0 9995 2 51025 97.4254 341.0264 0010116 247.6786 112.3411 15.83612602 94005 NO-116 1 51031U 22002AZ 23264.17114739 .00068960 00000-0 16390-2 0 9996 2 51031 97.4349 335.1929 0007622 235.0595 124.9936 15.41389419 93647 IRIS-A 1 51044U 22002BN 23264.42882322 .00013196 00000-0 59044-3 0 9993 2 51044 97.4246 328.4949 0006365 259.7546 100.2972 15.21398194 93281 Tevel-7 1 51062U 22002CG 23264.72124738 .00027764 00000-0 97523-3 0 9996 2 51062 97.4244 331.2998 0006002 242.5511 117.5119 15.29342570 93497 Tevel-4 1 51063U 22002CH 23264.73131512 .00028950 00000-0 10189-2 0 9996 2 51063 97.4241 331.2819 0006021 242.4874 117.5754 15.29268983 93499 Tevel-2 1 51069U 22002CP 23264.63450714 .00027184 00000-0 95345-3 0 9995 2 51069 97.4229 331.1415 0005997 243.9987 116.0636 15.29395343 93487 DELFI-PQ 1 51074U 22002CU 23264.19100245 .00090755 00000-0 18074-2 0 9990 2 51074 97.4477 338.3795 0007329 256.2812 103.7622 15.46550962 93783 SO-115 1 51080U 22002DA 23263.99358131 .00035022 00000-0 10651-2 0 9992 2 51080 97.4509 335.2481 0008092 276.0157 84.0163 15.33920321 93556 SO-114 1 51081U 22002DB 23264.16383340 .00039679 00000-0 11946-2 0 9993 2 51081 97.4504 335.4119 0008411 274.6980 85.3302 15.34210362 93585 OreSat0 1 52017U 22026K 23264.52556529 .00022111 00000-0 79043-3 0 9996 2 52017 97.5119 267.4616 0023250 103.4948 256.8884 15.28571573 84245 Planetum 1 1 52738U 22057G 23264.28870113 .00022321 00000-0 94210-3 0 9997 2 52738 97.5457 20.4506 0006525 20.9142 339.2360 15.23273849 73276 Foresail-1 1 52766U 22057AL 23264.74256685 .00013266 00000-0 59137-3 0 9998 2 52766 97.5584 21.7663 0011300 359.3141 0.8077 15.21489261 73351 SNUGLITE 2 1 52899U 22065F 23264.40925706 .00002120 00000-0 45522-3 0 9994 2 52899 98.0832 46.6642 0006698 276.5524 83.4914 14.59579842 64893 CTIM 1 52950U 22074G 23264.75618557 .00116957 00000-0 16283-2 0 9998 2 52950 44.9961 175.0243 0013063 153.4132 206.7434 15.55796127 68570 IO-117 1 53106U 22080B 23261.43787344 -.00000003 00000-0 00000+0 0 9994 2 53106 70.1429 287.3171 0008510 169.3045 190.7797 6.42557208 27740 AstroBioCubeSat 1 53107U 22080C 23025.30817895 -.00000003 00000-0 00000-0 0 9995 2 53107 70.1710 9.4734 0013545 210.3158 149.6718 6.42110537 12478 SelfieSat 1 53951U 22057BC 23264.78058499 .00024541 00000-0 95782-3 0 9996 2 53951 97.5503 21.9492 0007815 8.1098 352.0265 15.25878212 73394 FO-118 1 54684U 22167C 23264.75994197 .00015721 00000-0 80760-3 0 9993 2 54684 97.5750 41.9085 0012674 5.8451 354.2927 15.16509621 43300 SSS-2B 1 56184U 23054G 23264.76159703 .00017623 00000-0 69962-3 0 9997 2 56184 97.3955 158.4977 0012397 62.3921 297.8574 15.25333112 24880 CIRBE 1 56188U 23054L 23264.50035486 .00021550 00000-0 82534-3 0 9998 2 56188 97.3911 158.2879 0010906 58.2566 301.9734 15.26504418 24850 INSPIRE-Sat 7 1 56211U 23054AK 23264.26077054 .00027631 00000-0 99362-3 0 9998 2 56211 97.3928 158.5058 0014978 41.4817 318.7557 15.28483070 24843 RoseyCubesat 1 1 56212U 23054AL 23264.75540146 .00026858 00000-0 95106-3 0 9992 2 56212 97.3935 159.0774 0015185 39.5220 320.7124 15.28991005 24924 ARKSAT 1 1 56311U 98067VC 23264.36813933 .00201260 00000-0 12431-2 0 9993 2 56311 51.6320 199.8973 0008492 106.1820 254.0115 15.75937627 23423 AuroraSat 1 56312U 98067VD 23264.65663796 .00416449 00000-0 15703-2 0 9998 2 56312 51.6260 195.7746 0008165 121.0895 239.0911 15.86070586 23538 Ex-Alta 2 1 56313U 98067VE 23264.04288055 .00207231 00000-0 12591-2 0 9992 2 56313 51.6280 201.4506 0008216 104.1212 256.0702 15.76296825 23398 LightCube 1 56314U 98067VF 23264.27004450 .00361011 00000-0 15738-2 0 9996 2 56314 51.6272 198.4498 0008170 106.9219 253.2680 15.83171639 23488 NEUDOSE 1 56315U 98067VG 23264.64683265 .00124835 00000-0 10876-2 0 9994 2 56315 51.6320 201.7653 0008329 92.0913 268.1037 15.68067658 23429 YukonSat 1 56316U 98067VH 23264.24485681 .00169808 00000-0 12418-2 0 9996 2 56316 51.6313 202.0704 0008409 92.5786 267.6175 15.72118822 23405 URESAT-1 1 56992U 23084BU 23264.54288227 .00017033 00000-0 93523-3 0 9992 2 56992 97.5134 19.5760 0017012 244.0677 115.8801 15.14073270 15214 MRC-100 1 56993U 23084BV 23264.27669001 .00021500 00000-0 11750-2 0 9991 2 56993 97.5139 19.3263 0017125 245.5859 114.3586 15.14189138 15180 UmKA 1 (RS40S) 1 57172U 23091G 23264.72245163 .00004180 00000-0 30588-3 0 9994 2 57172 97.6553 314.5843 0016646 322.8344 37.1728 15.04030103 12947 CubeBel-2 (EU11S) 1 57175U 23091K 23264.75421797 .00007087 00000-0 52119-3 0 9992 2 57175 97.6550 314.5350 0015835 333.5025 26.5389 15.03611576 12947 /EX